Ladysmith, WI

8:02 AM CDT on July 26, 2017 (GMT -0500)
Rusk County

Weather History for KRCX - September, 2013

Change the Weather History Date:

Tuesday, September 24, 2013

  Actual Average (KPBH) Record (KPBH)
Temperature  
Mean Temperature 56 °F -  
Max Temperature 72 °F 61 °F 82 °F (2007)
Min Temperature 41 °F 42 °F 26 °F (2000)
Degree Days  
Heating Degree Days 8    
Growing Degree Days 6 (Base 50)    
Moisture  
Dew Point 47 °F    
Average Humidity 77    
Maximum Humidity 97    
Minimum Humidity 41    
Precipitation  
Precipitation 0.00 in - - ()
Sea Level Pressure  
Sea Level Pressure 30.03 in    
Wind  
Wind Speed 4 mph (SE)    
Max Wind Speed 10 mph    
Max Gust Speed -    
Visibility 9 miles    
Events      
Averages and records for this station are not official NWS values.
T = Trace of Precipitation, MM = Missing Value Source: NWS Daily Summary

Daily Weather History Graph

Daily Weather History Graph

Search for Another Location

Airport or City:

Trip Planner

Search our weather history database for the weather conditions in past years. The results will help you decide how hot, cold, wet, or windy it might be!

Date:

Astronomy

Sep. 24, 2013 Rise Set
Actual Time 6:53 AM CDT 6:57 PM CDT
Civil Twilight 6:24 AM CDT 7:26 PM CDT
Nautical Twilight 5:49 AM CDT 8:01 PM CDT
Astronomical Twilight 5:14 AM CDT 8:36 PM CDT
Moon 9:59 PM CDT (9/24) 12:23 PM CDT (9/24)
Length of Visible Light 13h 02m
Length of Day
12h 03m
Waning Gibbous, 73% of the Moon is Illuminated
Sep 24
Waning Gibbous
Sep 26
Last Quarter
Oct 4
New
Oct 11
First Quarter
Oct 18
Full

Hourly Weather History & Observations

Time (CDT) Temp. Windchill Dew Point Humidity Pressure Visibility Wind Dir Wind Speed Gust Speed Precip Events Conditions
12:15 AM 49.5 °F - 46.8 °F 90% 30.03 in 10.0 mi ESE 4.6 mph - N/A   Clear
12:35 AM 48.6 °F - 46.4 °F 92% 30.03 in 10.0 mi ESE 4.6 mph - N/A   Clear
12:55 AM 48.6 °F - 46.6 °F 93% 30.04 in 10.0 mi Calm Calm - N/A   Clear
1:15 AM 48.4 °F - 46.4 °F 93% 30.04 in 10.0 mi SE 4.6 mph - N/A   Clear
1:35 AM 47.5 °F - 45.7 °F 93% 30.05 in 10.0 mi ESE 4.6 mph - N/A   Clear
1:55 AM 47.1 °F - 45.5 °F 94% 30.05 in 10.0 mi ESE 5.8 mph - N/A   Clear
2:15 AM 47.5 °F - 45.9 °F 94% 30.05 in 10.0 mi ESE 5.8 mph - N/A   Clear
2:35 AM 47.3 °F - 45.9 °F 95% 30.05 in 10.0 mi ESE 5.8 mph - N/A   Clear
2:55 AM 47.1 °F - 45.5 °F 94% 30.04 in 10.0 mi ESE 5.8 mph - N/A   Clear
3:15 AM 47.5 °F - 45.9 °F 94% 30.04 in 10.0 mi ESE 6.9 mph - N/A   Clear
3:35 AM 47.1 °F - 45.1 °F 93% 30.04 in 10.0 mi ESE 5.8 mph - N/A   Clear
3:55 AM 46.4 °F 44.3 °F 44.6 °F 93% 30.04 in 10.0 mi ESE 4.6 mph - N/A   Clear
4:15 AM 46.4 °F 45.2 °F 44.6 °F 93% 30.05 in 10.0 mi ESE 3.5 mph - N/A   Clear
4:35 AM 45.3 °F - 43.7 °F 94% 30.06 in 7.0 mi Calm Calm - N/A   Clear
4:55 AM 43.7 °F 42.1 °F 42.4 °F 95% 30.05 in 7.0 mi East 3.5 mph - N/A   Clear
5:15 AM 44.6 °F 43.1 °F 43.3 °F 95% 30.05 in 7.0 mi East 3.5 mph - N/A   Clear
5:35 AM 42.4 °F 39.6 °F 41.0 °F 95% 30.05 in 4.0 mi NE 4.6 mph - N/A   Clear
5:55 AM 41.5 °F 39.6 °F 40.5 °F 96% 30.05 in 3.0 mi ENE 3.5 mph - N/A   Clear
6:15 AM 43.7 °F 40.3 °F 42.8 °F 97% 30.05 in 5.0 mi East 5.8 mph - N/A   Clear
6:35 AM 44.4 °F 41.2 °F 43.5 °F 97% 30.05 in 7.0 mi East 5.8 mph - N/A   Clear
6:55 AM 44.1 °F 40.1 °F 43.0 °F 96% 30.05 in 5.0 mi East 6.9 mph - N/A   Clear
7:15 AM 44.6 °F 40.7 °F 43.7 °F 97% 30.05 in 5.0 mi East 6.9 mph - N/A   Clear
7:35 AM 45.5 °F 43.2 °F 44.6 °F 97% 30.05 in 5.0 mi East 4.6 mph - N/A   Clear
7:55 AM 46.9 °F - 45.9 °F 96% 30.06 in 5.0 mi East 4.6 mph - N/A   Clear
8:15 AM 48.4 °F - 46.6 °F 93% 30.05 in 7.0 mi East 6.9 mph - N/A   Clear
8:35 AM 50.2 °F - 47.8 °F 92% 30.06 in 7.0 mi East 9.2 mph - N/A   Clear
8:55 AM 52.0 °F - 48.9 °F 89% 30.06 in 10.0 mi ESE 6.9 mph - N/A   Clear
9:15 AM 53.8 °F - 49.5 °F 85% 30.05 in 10.0 mi ESE 8.1 mph - N/A   Clear
9:35 AM 55.0 °F - 50.0 °F 83% 30.05 in 10.0 mi ESE 10.4 mph - N/A   Clear
9:55 AM 56.1 °F - 50.2 °F 80% 30.06 in 10.0 mi ESE 6.9 mph - N/A   Clear
10:15 AM 57.7 °F - 50.7 °F 77% 30.06 in 10.0 mi SE 6.9 mph - N/A   Clear
10:35 AM 58.6 °F - 51.6 °F 77% 30.06 in 10.0 mi SE 4.6 mph - N/A   Clear
10:55 AM 60.1 °F - 51.8 °F 74% 30.06 in 10.0 mi SSE 3.5 mph - N/A   Clear
11:15 AM 61.9 °F - 51.8 °F 69% 30.06 in 10.0 mi SE 3.5 mph - N/A   Clear
11:35 AM 63.9 °F - 51.8 °F 65% 30.05 in 10.0 mi SSE 3.5 mph - N/A   Clear
11:55 AM 64.9 °F - 51.6 °F 62% 30.05 in 10.0 mi Calm Calm - N/A   Clear
12:15 PM 66.4 °F - 52.3 °F 61% 30.04 in 10.0 mi South 6.9 mph - N/A   Clear
12:55 PM 67.5 °F - 50.0 °F 53% 30.04 in 10.0 mi SSE 5.8 mph - N/A   Clear
1:15 PM 68.4 °F - 50.7 °F 53% 30.03 in 10.0 mi ESE 3.5 mph - N/A   Clear
1:35 PM 69.8 °F - 49.8 °F 49% 30.03 in 10.0 mi SSE 4.6 mph - N/A   Clear
1:55 PM 69.8 °F - 50.5 °F 50% 30.02 in 10.0 mi South 3.5 mph - N/A   Clear
2:15 PM 70.7 °F - 50.0 °F 48% 30.02 in 10.0 mi SSE 6.9 mph - N/A   Clear
2:35 PM 70.7 °F - 48.0 °F 44% 30.01 in 10.0 mi SSE 3.5 mph - N/A   Clear
2:55 PM 71.2 °F - 48.7 °F 45% 30.00 in 10.0 mi SSW 6.9 mph - N/A   Clear
3:15 PM 71.6 °F - 49.1 °F 45% 30.00 in 10.0 mi SSW 5.8 mph - N/A   Clear
3:35 PM 71.8 °F - 46.8 °F 41% 30.00 in 10.0 mi ESE 5.8 mph - N/A   Clear
3:55 PM 72.1 °F - 47.8 °F 42% 30.00 in 10.0 mi SSE 4.6 mph - N/A   Clear
4:15 PM 72.1 °F - 47.5 °F 41% 29.99 in 10.0 mi SE 5.8 mph - N/A   Clear
4:35 PM 72.1 °F - 47.5 °F 41% 29.99 in 10.0 mi SE 5.8 mph - N/A   Clear
4:55 PM 71.8 °F - 47.8 °F 43% 29.99 in 10.0 mi SE 5.8 mph - N/A   Clear
5:15 PM 71.6 °F - 47.5 °F 42% 29.98 in 10.0 mi ESE 6.9 mph - N/A   Clear
5:35 PM 70.9 °F - 47.7 °F 44% 29.98 in 10.0 mi Calm Calm - N/A   Clear
5:55 PM 69.8 °F - 47.8 °F 46% 29.98 in 10.0 mi SE 5.8 mph - N/A   Clear
6:15 PM 68.5 °F - 48.6 °F 49% 29.98 in 10.0 mi SSE 3.5 mph - N/A   Clear
6:35 PM 66.7 °F - 49.5 °F 54% 29.98 in 10.0 mi SE 4.6 mph - N/A   Clear
6:55 PM 65.1 °F - 49.6 °F 57% 29.98 in 10.0 mi Calm Calm - N/A   Clear
7:15 PM 60.3 °F - 50.7 °F 71% 29.99 in 10.0 mi Calm Calm - N/A   Clear
7:35 PM 55.6 °F - 50.9 °F 84% 29.99 in 10.0 mi Calm Calm - N/A   Clear
7:55 PM 53.8 °F - 50.5 °F 89% 30.00 in 10.0 mi Calm Calm - N/A   Clear
8:15 PM 52.0 °F - 49.1 °F 90% 30.00 in 10.0 mi Calm Calm - N/A   Clear
8:35 PM 52.3 °F - 48.0 °F 85% 30.01 in 10.0 mi Calm Calm - N/A   Clear
8:55 PM 50.9 °F - 48.4 °F 91% 30.01 in 10.0 mi Calm Calm - N/A   Clear
9:15 PM 50.2 °F - 48.0 °F 92% 30.01 in 10.0 mi East 3.5 mph - N/A   Clear
9:35 PM 51.8 °F - 48.9 °F 90% 30.00 in 10.0 mi ESE 5.8 mph - N/A   Clear
9:55 PM 52.3 °F - 48.4 °F 86% 30.00 in 10.0 mi ESE 4.6 mph - N/A   Clear
10:15 PM 49.3 °F - 46.6 °F 90% 30.01 in 10.0 mi Calm Calm - N/A   Clear
10:35 PM 50.0 °F - 47.3 °F 90% 30.01 in 10.0 mi Calm Calm - N/A   Clear
10:55 PM 49.1 °F - 46.8 °F 92% 30.01 in 10.0 mi Calm Calm - N/A   Clear
11:15 PM 48.2 °F - 45.7 °F 91% 30.01 in 10.0 mi Calm Calm - N/A   Clear
11:35 PM 48.4 °F - 46.4 °F 93% 30.01 in 10.0 mi Calm Calm - N/A   Clear
11:55 PM 47.3 °F - 45.5 °F 93% 30.01 in 10.0 mi Calm Calm - N/A   Clear